#timestamp,LO_Frequency,Hit,StdDev 
1711281615.0,286046999.7,N
1711281615.9,286046999.7,N
1711281635.8,286047002.8,N
1711281655.6,286047001.5,N
1711281675.5,286047000.0,N
1711281695.3,286047002.4,N
1711281715.1,286047001.7,N
1711281735.9,286047000.1,N
1711281755.7,286047002.8,N
1711281775.5,286047002.4,N
1711281795.4,286047000.4,N
1711281815.2,286047000.4,N
1711281835.1,286047000.8,N
1711281836.0,286047000.8,N
1711281855.8,286047000.3,N
1711281875.6,286047000.0,N
1711281895.5,286047002.3,N
1711281915.3,286047002.6,N
1711281935.1,286047004.3,N
1711281955.9,286047001.4,N
1711281975.7,286047004.0,N
1711281995.6,286047003.5,N
1711282015.4,286047003.1,N
1711282035.2,286047003.4,N
1711282055.1,286047004.2,N
1711282056.0,286047004.2,N
1711282075.8,286047003.7,N
1711282095.7,286047003.2,N
1711282115.5,286047003.5,N
1711282135.3,286047003.1,N
1711282155.2,286047005.3,Y
1711282175.0,286047001.7,P
1711282175.9,286047001.7,P
1711282195.8,286047002.6,P
1711282215.6,286047003.7,Y
1711282235.4,286046999.8,P
1711282255.3,286047002.0,N
1711282275.1,286047001.8,N
1711282295.8,286047002.3,N
1711282315.7,286047001.9,N
1711282335.5,286047001.4,N
1711282355.4,286047001.9,N
1711282375.2,286047002.3,Y
1711282395.0,286046999.9,P
1711282395.9,286046999.9,N
1711282415.8,286047001.0,N
1711282435.6,286046998.9,N
1711282455.4,286046999.1,N
1711282475.3,286046999.4,N
1711282495.1,286046996.7,Y
1711282515.9,286046999.1,P
1711282535.7,286046999.6,N
1711282555.5,286046998.3,P
1711282575.4,286046999.5,N
1711282595.2,286046998.8,N
1711282615.0,286047001.2,N
1711282616.0,286047001.2,N
1711282635.8,286046998.2,N
1711282655.6,286046998.6,N
1711282675.5,286047000.8,N
1711282695.3,286047000.1,N
1711282715.1,286047002.7,N
1711282735.9,286047004.0,Y
1711282755.7,286047003.7,P
1711282775.6,286047003.7,N
1711282795.4,286047004.1,N
1711282815.2,286047004.1,N
1711282835.1,286047001.5,N
1711282836.0,286047001.5,N
1711282855.8,286047001.9,N
1711282875.7,286047002.6,N
1711282895.5,286047002.1,N
1711282915.3,286047001.7,N
1711282935.2,286047004.1,Y
1711282955.0,286046999.8,P
1711282955.9,286046999.8,N
1711282975.8,286047002.8,N
1711282995.6,286047000.4,N
1711283015.4,286046999.8,N
1711283035.3,286046999.7,N
1711283055.1,286047000.6,N
1711283075.9,286047000.8,N
1711283095.7,286047001.0,N
1711283115.5,286046998.1,N
1711283135.4,286047001.1,N
1711283155.2,286047000.3,N
1711283175.1,286047000.2,N
1711283176.0,286047000.2,N
1711283195.8,286047000.1,N
1711283215.6,286047000.0,N
1711283235.5,286047001.9,N
1711283255.3,286047000.2,N
1711283275.1,286047001.2,N
1711283295.9,286046998.1,N
1711283315.7,286047000.9,N
1711283335.6,286047000.7,N
1711283355.4,286047000.9,N
1711283375.2,286047000.0,N
1711283395.1,286047001.2,N
1711283396.0,286047001.2,N
1711283415.8,286047000.9,N
1711283435.7,286047000.8,N
1711283455.5,286046999.4,N
1711283475.3,286046999.2,N
1711283495.2,286046998.8,N
1711283515.9,286046999.5,N
1711283535.7,286046999.3,N
1711283555.6,286046998.8,N
1711283575.4,286046998.6,N
1711283595.3,286047000.7,N
1711283615.1,286046998.6,N
1711283616.0,286046998.6,N
1711283635.8,286046998.2,N
1711283655.7,286046998.6,N
1711283675.5,286047001.2,N
1711283695.3,286047001.0,N
1711283715.2,286047000.8,N
1711283735.0,286046999.7,N
1711283735.9,286046999.7,N
1711283755.8,286047000.6,N
1711283775.6,286047000.6,N
1711283795.4,286046999.9,N
1711283815.3,286046999.9,N
1711283835.1,286047000.2,N
1711283855.9,286047000.1,N
1711283875.7,286047002.4,N
1711283895.5,286046999.8,N
1711283915.4,286047002.7,N
1711283935.2,286047000.2,N
1711283955.0,286046998.1,N
1711283956.0,286046998.1,N
1711283975.8,286046998.3,N
1711283995.6,286046998.3,N
1711284015.5,286046998.9,N
1711284035.3,286046998.8,N
1711284055.2,286046998.9,N
1711284075.9,286046998.6,N
1711284095.7,286046998.7,N
1711284115.6,286046998.4,N
1711284135.4,286047000.8,N
1711284155.2,286047001.0,N
1711284175.1,286047000.4,N
1711284176.0,286047000.4,N
1711284195.8,286047002.4,N
1711284215.7,286047000.5,N
1711284235.5,286047000.2,N
1711284255.3,286047000.5,N
1711284275.2,286047000.3,N
1711284295.9,286047000.4,N
1711284315.7,286047002.6,N
1711284335.6,286047002.4,N
1711284355.4,286047002.5,N
1711284375.3,286047000.7,N
1711284395.1,286047000.6,N
1711284396.0,286047000.6,N
1711284415.8,286047002.6,N
1711284435.7,286047001.9,N
1711284455.5,286047002.5,N
1711284475.4,286047000.1,N
1711284495.2,286047002.2,N
1711284515.0,286047000.1,N
1711284515.9,286047000.1,N
1711284535.8,286047000.8,N
1711284555.6,286046998.1,N
1711284575.4,286047000.2,N
1711284595.3,286047007.5,Y
1711284615.1,286047008.4,P
1711284635.9,286047008.9,N
1711284655.7,286047006.4,N
1711284675.5,286047005.5,N
1711284695.4,286047003.7,N
1711284715.2,286047003.8,N
1711284735.0,286047004.3,N
1711284736.0,286047004.3,N
1711284755.8,286047000.2,N
1711284775.6,286047001.1,N
1711284795.5,286046999.2,N
1711284815.3,286046996.5,N
1711284835.1,286046997.2,N
1711284855.9,286046997.8,N
1711284875.7,286046997.8,N
1711284895.5,286046997.9,N
1711284915.4,286046993.7,N
1711284935.2,286046994.6,N
1711284955.1,286046993.4,N
1711284956.0,286046993.4,N
1711284975.8,286046994.2,N
1711284995.7,286046992.5,N
1711285015.5,286046993.1,N
1711285035.3,286046992.7,N
1711285055.2,286046994.8,N
1711285075.0,286046994.7,N
1711285075.9,286046994.7,N
1711285095.7,286046994.3,N
1711285115.6,286046988.7,N
1711285135.4,286046991.3,N
1711285155.3,286046991.8,N
1711285175.1,286046991.9,N
1711285176.0,286046991.9,N
1711285195.8,286046994.7,N
